Location: Fort Wayne
(41.1310°N, 85.1290°W)
Time: 05:48:01
(UTC-04:00)

Cosmos 1980 - Visible Passes

Search period start: 27 May 2015 00:00
Search period end: 06 June 2015 00:00
Orbit: 840 x 847 km, 71.0° (Epoch: 25 May)

Date Brightness Start Highest point End Pass type
(mag) Time Alt. Az. Time Alt. Az. Time Alt. Az.
27 May 4.7 00:48:54 27° WSW 00:51:25 42° WNW 00:56:46 10° N visible
27 May 4.7 22:52:03 25° ESE 22:53:02 26° ESE 22:57:42 10° NE visible
28 May 4.6 00:33:49 23° WSW 00:36:55 44° WNW 00:42:18 10° NNE visible
28 May 4.7 22:36:50 21° SE 22:38:33 25° ESE 22:43:09 10° NE visible
29 May 4.6 00:18:35 19° SW 00:22:24 45° WNW 00:27:50 10° NNE visible
29 May 4.8 22:21:23 17° SE 22:24:05 24° ESE 22:28:35 10° NE visible
30 May 4.6 00:03:08 13° SW 00:07:54 47° WNW 00:13:21 10° NNE visible
30 May 4.8 22:05:38 11° SSE 22:09:36 23° ESE 22:14:01 10° NE visible
30 May 4.5 23:47:55 10° SW 23:53:23 49° WNW 23:58:53 10° NNE visible
31 May 4.9 21:50:59 10° SSE 21:55:07 22° ESE 21:59:27 10° NE visible
31 May 4.5 23:33:23 10° SW 23:38:53 51° WNW 23:44:24 10° NNE visible
01 Jun 4.9 21:36:38 10° SSE 21:40:38 21° ESE 21:44:52 10° NE visible
01 Jun 4.4 23:18:51 10° SW 23:24:22 54° WNW 23:29:55 10° NNE visible
02 Jun 4.4 23:04:19 10° SW 23:09:52 56° WNW 23:15:26 10° NNE visible
03 Jun 4.3 22:49:48 10° SW 22:55:21 58° WNW 23:00:57 10° NNE visible
04 Jun 6.8 00:39:54 10° NW 00:40:52 10° NW 00:41:32 10° NNW visible
04 Jun 4.3 22:35:16 10° SW 22:40:51 61° WNW 22:46:28 10° NNE visible
05 Jun 6.8 00:24:52 10° NW 00:26:18 11° NW 00:27:27 10° NNW visible
05 Jun 4.2 22:20:45 10° SW 22:26:20 63° WNW 22:31:59 10° NNE visible
